"Pseudo-MPEC" for ZTF00lH

Created 2018 Sep 11 0:04:23 UT using Find_Orb

Click here for an explanation of pseudo-MPECs

 
 Astrometry: 
     ZTF00lH  C2018 09 100;Astrometry979N,e!@cRo7l\DTNg(we^p^-EW[hhP[Yi0?Te_qI41
     ZTF00lH  C2018 09 10=.cdjasN!p:_@Rl?/M.wXC0G-OVMhMjwj.AR'n(dtA+L3J\:23r0I41
     ZTF00lH  C2018 09 10Dt=M*j15mwhTX]4:!redacted;/[`[Heqcw+5a)cY0m#%ls[j5y#I41
     ZTF00lH  C2018 09 10=2xaHGsdWXS?a=xLd!RiHL$8Bm:Aq1u)06+1%Ot](9yEkKdF#Sn)I41
     ZTF00lH  C2018 09 10X`KKUFvfBZP2e;ODj#\sp[ra`\a=j0GJL'YM$FI^P[#ldH6g*/]?I41
     ZTF00lH  C2018 09 10\x%:BbJCdNJF.wJ.b^[e*FgAgq*Kjf#osee+=lGAi2p9XXj\fjDJI41
     ZTF00lH IC2018 09 10c/QPmZrGGvp,mbSi,?9yQqj3]41anOptZB6[:]\jTh^puMofF7F4I41
     ZTF00lH  C2018 09 10t4y5)N,W.`yyA:\W*6yB-uIcji?je$TTXj],Pno6nn2bPiFNEOCPI41

Station data:
(I41) Palomar Mountain--ZTF  (N33.357340 W116.859780)  US/California. 1.2-m
   f/2.44 Oschin Schmidt + CCD.

Orbital elements:  ZTF00lH
   Perigee 2018 Sep 10.016200 +/- 0.00514 TT =  0:23:19 (JD 2458371.516200)
Epoch 2018 Sep 10.0 TT = JDT 2458371.5                        Gray
M 353.5877730 +/- 2.0               (J2000 equator)
n 395.8109687458 +/- 4.87           Peri.  196.7022545 +/- 0.35
a 39653.204461 +/- 325              Node    19.0509231 +/- 0.31
e   0.690720213 +/- 0.00418         Incl.   16.3522084 +/- 0.020
P1309.69m/0.910d           H 34.0   G  0.15   U 13.8  
q 12263.934611 +/- 267    Q 67042.474312 +/- 393
From 8 observations 2018 Sept. 10 (60.0 min); mean residual 0".713
Residuals in arcseconds: 
180910 I41 .409- .596-    180910 I41 .649+ .310+    180910 I41 .866+ .287-    
180910 I41 .385+ .585+    180910 I41 .578+ .776-    180910 I41 .729- .350+    
180910 I41 .538+ .584+    180910 I41 1.88- .169-    

Ephemerides (geocentric):
Date (UTC) HH   RA              Dec         delta   r     elong  mag " sig PA
---- -- -- --  -------------   -----------  ------ ------ -----  --- ---- ---
2018 09 11 00  22 02 15.281   -12 22 33.74   28618 1.0070 160.3 16.4 284'  79
2018 09 11 01  23 10 38.204   -08 40 09.72   37737 1.0071 175.9 Sha  178'  76
2018 09 11 02  23 53 14.419   -05 54 36.09   45227 1.0071 170.7 17.0 7885  74
2018 09 11 03  00 24 18.976   -03 44 41.80   51342 1.0072 163.0 17.6 6346  73
2018 09 11 04  00 49 11.632   -01 57 07.66   56284 1.0072 156.7 18.0 5407  73
2018 09 11 05  01 10 22.905   -00 24 11.14   60192 1.0072 151.2 18.3 4801  73
2018 09 11 06  01 29 15.651   +00 58 51.67   63164 1.0072 146.4 18.5 4404  73
2018 09 11 07  01 46 41.407   +02 15 07.85   65263 1.0071 141.9 18.7 4157  73
2018 09 11 08  02 03 15.974   +03 26 49.75   66534 1.0071 137.7 18.9 4030  73
2018 09 11 09  02 19 27.183   +04 35 38.13   66999 1.0071 133.5 19.0 4011  74
2018 09 11 10  02 35 39.473   +05 42 55.89   66669 1.0070 129.4 19.1 4104  74
2018 09 11 11  02 52 17.265   +06 49 57.23   65537 1.0070 125.2 19.2 4327  75
2018 09 11 12  03 09 48.294   +07 57 54.51   63582 1.0070 120.7 19.3 4717  75
2018 09 11 13  03 28 48.044   +09 08 04.14   60763 1.0069 116.0 19.3 5348  76
2018 09 11 14  03 50 07.114   +10 21 51.83   57020 1.0068 110.6 19.3 6355  77
2018 09 11 15  04 15 05.618   +11 40 54.62   52262 1.0068 104.4 19.3 8016  78
2018 09 11 16  04 46 05.658   +13 06 46.24   46358 1.0067  96.7 19.4 183'  80
2018 09 11 17  05 27 57.618   +14 39 11.57   39118 1.0067  86.5 19.4 282'  83
2018 09 11 18  06 32 46.514   +16 04 41.49   30291 1.0066  70.9 19.6 537'  87
2018 09 11 19  08 41 24.254   +15 16 43.97   19828 1.0066  40.1 21??  26d  96